Flag for Germany Weather past 2 weeks in Titisee-Neustadt, Baden-Württemberg, Germany

Now
52 °F

Overcast.


Feels Like: 49 °F
Forecast: 28 / 38 °F
Wind: 9 mph from Southwest

Location: Freiburg

Current Time: Mar 1, 2015 at 8:43:26 PM

Latest Report: Mar 1, 2015 at 8:00 PM


Visibility: 44 mi

Pressure: 29.84 "Hg

Humidity: 76%

Dew point: 45 °F

Location of Titisee-NeustadtLocation

Historic Weather in Titisee-Neustadt — Graph

°F

Titisee-Neustadt temperature yesterday

Maximum temperature yesterday: 46 °F (at 3:00 PM)
Minimum temperature yesterday: 32 °F (at 8:00 AM)
Average temperature yesterday: 39 °F

Past Weeks' High & Low Weather Summary

 TemperatureHumidityPressure
High56 °F (Feb 20, 5:00 PM)100% (Feb 15, 6:00 AM)30.71 "Hg (Feb 15, 6:00 AM)
Low25 °F (Feb 20, 2:00 AM)27% (Feb 20, 8:00 PM)29.56 "Hg (Feb 23, 5:00 PM)
Average39 °F80%30.02 "Hg
* Reported Feb 14 6:00 PM — Mar 1 6:00 PM, Titisee-Neustadt, Weather by CustomWeather, © 2015

Note: Actual official high and low records may vary slightly from our data, if they occured in-between our weather recording intervals... More about our weather records

Advertising

Titisee-Neustadt weather history for previous 24 hours

 ConditionsComfort  
Time TempWeatherWind HumidityBarometerVisibility
6:00 PM
Sun, Mar 1
52 °FOvercast.7 mph81%29.83 "Hg43 mi
5:00 PM52 °FOvercast.9 mph84%29.83 "Hg43 mi
3:00 PM53 °FOvercast.8 mph79%29.83 "Hg43 mi
2:00 PM52 °FOvercast.10 mph79%29.86 "Hg31 mi
12:00 PM50 °FOvercast.9 mph79%29.88 "Hg31 mi
11:00 AM49 °FOvercast.8 mph79%29.88 "Hg43 mi
10:00 AM44 °FOvercast.5 mph84%29.89 "Hg28 mi
9:00 AM39 °FOvercast.1 mph93%29.90 "Hg19 mi
8:00 AM38 °FOvercast.1 mph93%29.89 "Hg17 mi
6:00 AM38 °FLight rain. Overcast.3 mph80%29.93 "Hg6 mi
5:00 AM43 °FLight rain. Overcast.6 mph51%29.92 "Hg17 mi
3:00 AM41 °FOvercast.5 mph60%29.95 "Hg43 mi
2:00 AM40 °FOvercast.5 mph67%29.97 "Hg31 mi
1:00 AM37 °FOvercast.3 mph74%29.99 "Hg22 mi
12:00 AM35 °FPassing clouds.2 mph79%30.02 "Hg22 mi
11:00 PM
Sat, Feb 28
37 °FPassing clouds.5 mph76%30.05 "Hg19 mi
9:00 PM38 °FClear.3 mph80%30.10 "Hg11 mi
8:00 PM38 °FClear.3 mph79%30.10 "Hg16 mi
Weather by CustomWeather, © 2015

See weather overviewHow to use our weather pages